Showing default

MUOS 5, 41622

Orbit data source: Space-Track

MUOS 5, 41622 is a payload satellite owned by SPAWAR Pacific (US) in GEO that was launched on Fri, 24 Jun 2016 UTC via an ATLAS V 551 launch vehicle from the Air Force Eastern Test Range (AFETR). Payload-class satellites include a variety of spacecraft equipped with specific instruments for various scientific and technological missions. These include communications satellites like Starlink; space stations such as the ISS; scientific satellites like the Hubble; Earth observation satellites from companies like Planet Labs, Umbra, and HawkEye 360; GPS; miniature CubeSats for education and research; and military/defense satellites.

Loading next visibility...
Identifier
41622, 2016-041A
Orbit
GEO
Last TLE update
13 hours ago
Origin
Manufacturer
LMSS/LMCSS
Mission
Operational Defense Communications
Bus & Motor
A2100, BT-4
Mass
6,800 kg wet, 3,800 kg dry
Launch date (UTC)
2016-06-24 (9 years ago)
Launch vehicle
ATLAS V 551
Launch site
Air Force Eastern Test Range (AFETR)
Object type
Payload
Rocket body
Debris
Shape & HBR
Box + 2 Pan + 1 Dish, 28.7 m
Radar Cross Section
71.298 m², Large (>1 m²)

Expand to show TLE details & history

TLE from 13 hours ago
0 MUOS 5
1 41622U 16041A   25170.91024944 -.00000105  00000-0  00000+0 0  9991
2 41622   3.0147 297.3723 0195778 258.3691 295.3085  1.00270798 33435
Epoch: 2025-06-19T21:50Z
TLE epoch observation values (Epoch: 2025-06-19T21:50:45.551Z)
Latitude
-0.59817°
Longitude
-107.08182°
Altitude
35,450.286 km
Speed
3.099 km/s
True Right ascension
08h 35m 54s
True Declination
0° 35' 51"
Sunlit
Object was in daylight at epoch
Visualization orbit readout
Latitude
1.21608°
Longitude
85.19208°
Altitude
36,251.615 km
Speed
3.041 km/s
Apparent Right ascension
21h 26m 00s
Apparent Declination
-4° 47' 56"
Sunlit
Object is in daylight
Visualization observer readout
Local Sidereal Time
21:17:23
Azimuth
176.954° S
Elevation
45.241°
Doppler factor
1
Orbital elements
Apogee altitude
36,613.457 km
Perigee altitude
34,962.419 km
Semi-major axis
42,166.075 km
Eccentricity
0.01958
Inclination
3.0147°
RAAN
297.3723°
Arg. of periapsis
258.3691°
True anomaly
Unknown
Mean anomaly
295.3085°
Eccentric anomaly
Unknown
Mean motion
0.25067 °/min
Orbital period
1,436.16 mins
BSTAR
0
Loading historical data...
41622 neighbors
Loading maneuver chart data...
Loading SW <> Apogee altitude chart data...
Loading historical data...
Loading historical data...
Loading historical data...
Loading historical data...
Loading historical data...
Loading historical data...
Loading historical data...
Other satellites on launch #41 in the year 2016 (2016-06-24 UTC)

MUOS 5 Visibility forecast

Observer location: undefined°, undefined°

Span
Click to sort rows by Start time (UTC) header in descending order
Start Az.
Max El. time (UTC)
Max El. Az.
Max El.
End time (UTC)
End Az.
1440 mins2025-06-20 10:22:19.512Z176.956° S2025-06-20 15:00:19.512Z180.671° SSW36.336°2025-06-21 10:22:19.512Z176.993° S
|